Date,TemperatureHighF,TemperatureAvgF,TemperatureLowF,DewpointHighF,DewpointAvgF,DewpointLowF,HumidityHigh,HumidityAvg,HumidityLow,PressureMaxIn,PressureMinIn,WindSpeedMaxMPH,WindSpeedAvgMPH,GustSpeedMaxMPH,PrecipitationSumIn
2013-1-1,33,26,12,31,21,8,93,82,65,30.09,29.96,5,1,5,0.01
2013-1-2,34,16,5,24,9,1,89,76,48,30.18,30.05,5,1,5,0.00
2013-1-3,32,19,3,23,12,-2,85,75,49,30.21,30.11,11,3,11,0.00
2013-1-4,32,27,22,23,19,16,80,72,62,30.24,30.17,15,6,15,0.01
2013-1-5,43,28,13,31,21,8,87,75,59,30.31,30.08,10,3,10,0.06
2013-1-6,38,32,27,32,27,23,89,81,74,30.24,29.94,14,5,14,0.04
2013-1-7,40,29,22,32,24,17,89,80,63,30.41,30.18,8,2,8,0.00
2013-1-8,44,32,19,33,25,16,89,78,63,30.28,30.17,7,1,7,0.00
2013-1-9,46,38,29,39,32,25,86,79,71,30.45,30.13,9,3,9,0.02
2013-1-10,41,32,23,32,27,20,91,80,67,30.51,30.11,9,2,9,0.01
2013-1-11,59,50,41,54,45,32,93,83,70,30.12,29.84,12,4,12,0.56
2013-1-12,63,55,47,60,52,44,94,89,79,30.00,29.80,9,2,9,0.01
2013-1-13,64,56,38,60,52,35,93,89,80,30.02,29.71,19,5,19,0.48
2013-1-14,38,28,24,35,24,20,90,83,78,30.37,30.02,10,3,10,0.00
2013-1-15,33,29,23,26,23,20,89,79,69,30.33,30.02,7,2,7,0.00
2013-1-16,35,32,28,29,26,24,88,80,71,30.04,29.88,10,3,10,0.00
2013-1-17,38,33,24,31,26,15,83,76,67,30.28,29.99,11,2,11,0.00
2013-1-18,35,27,16,26,19,11,85,70,57,30.44,30.12,13,4,13,0.00
2013-1-19,50,42,34,31,28,25,72,58,42,30.12,29.79,17,8,17,0.00
2013-1-20,45,30,23,36,19,13,72,63,48,30.15,29.77,20,6,20,0.00
2013-1-21,24,18,10,17,10,-1,82,70,51,30.12,29.96,19,6,19,0.00
2013-1-22,15,10,6,4,0,-2,70,64,52,30.26,30.11,10,5,16,0.00
2013-1-23,20,15,8,14,5,0,85,66,46,30.25,30.00,10,4,10,0.00
2013-1-24,21,16,11,15,10,5,86,74,60,30.49,30.01,10,2,12,0.00
2013-1-25,25,20,15,19,13,8,86,75,65,30.41,29.96,10,3,10,0.00
2013-1-26,31,24,11,22,18,5,87,77,63,30.38,30.03,10,2,10,0.04
2013-1-27,37,23,7,28,16,3,88,74,58,30.42,30.16,8,2,8,0.04
2013-1-28,49,42,32,47,40,28,94,91,84,30.16,29.94,12,4,12,0.07
2013-1-29,61,54,47,56,51,46,95,88,78,30.00,29.59,14,5,14,0.07
2013-1-30,62,53,35,56,49,29,92,85,78,29.59,29.19,20,7,20,0.73
2013-1-31,35,26,20,29,19,13,88,76,63,29.86,29.37,24,10,24,0.00
2013-2-1,18,13,8,11,5,2,77,71,63,30.28,29.88,13,5,13,0.00
2013-2-2,27,21,9,23,16,2,88,81,75,30.24,29.90,12,4,12,0.00
2013-2-3,25,20,12,21,15,8,87,81,68,30.01,29.83,13,3,13,0.00
2013-2-4,31,22,11,25,18,7,88,83,65,30.01,29.76,9,2,9,0.00
2013-2-5,33,28,24,28,23,20,91,82,65,29.89,29.78,7,2,7,0.00
2013-2-6,38,30,19,29,21,12,87,70,47,30.21,29.89,8,2,8,0.09
2013-2-7,46,30,18,33,23,12,83,77,56,30.15,29.72,8,2,8,0.00
2013-2-8,43,36,26,37,31,20,92,82,73,30.07,29.66,13,5,13,0.20
2013-2-23,40,33,28,30,25,22,86,73,62,29.94,29.90,8,2,8,0.00
2013-2-24,34,30,26,25,22,20,85,74,61,30.15,29.92,9,2,9,0.00
2013-2-25,43,32,20,29,23,16,89,73,52,30.20,30.00,7,2,7,0.00
2013-2-26,42,37,32,40,32,24,93,83,66,30.00,29.47,18,7,18,0.72
2013-2-27,43,37,33,41,35,30,93,90,83,29.68,29.48,12,6,13,0.18
2013-2-28,36,34,32,34,31,29,92,89,85,29.91,29.63,9,4,10,0.04
2013-3-1,33,30,27,29,25,21,87,82,75,30.05,29.91,7,2,7,0.01
2013-3-2,29,27,25,24,22,20,86,82,75,30.04,29.99,7,2,8,0.00
2013-3-3,30,25,22,21,19,16,85,76,63,30.05,30.00,9,2,10,0.00
2013-3-4,40,24,16,24,17,12,88,77,45,30.15,30.05,7,1,7,0.00
2013-3-5,38,34,31,31,27,24,92,76,67,30.08,29.59,8,3,8,0.06
2013-3-6,39,34,31,32,30,28,93,85,73,30.21,29.58,8,1,8,0.34
2013-3-7,40,36,31,31,29,27,84,76,66,30.35,30.19,11,3,11,0.03
2013-3-8,44,36,26,31,28,22,86,71,56,30.46,30.34,6,2,6,0.00
2013-3-9,54,40,23,36,30,20,88,67,46,30.39,30.09,5,2,5,0.00
2013-3-10,68,57,48,41,37,32,59,47,36,30.08,29.87,9,3,9,0.00
2013-3-11,61,50,42,47,42,36,88,75,41,29.87,29.60,9,5,9,0.81
2013-3-12,40,36,33,34,30,28,87,80,74,30.00,29.81,14,5,14,0.00
2013-3-13,33,30,27,30,24,19,92,79,69,30.23,29.95,13,6,13,0.00
2013-3-14,41,31,23,24,20,17,78,65,50,30.30,30.15,7,3,7,0.00
2013-3-15,48,38,26,38,30,19,84,74,64,30.14,29.86,9,2,9,0.04
2013-3-16,47,40,32,44,37,29,92,90,85,30.02,29.64,6,2,6,0.06
2013-3-17,36,33,31,29,27,25,88,79,69,30.18,30.03,4,2,4,0.00
2013-3-18,49,39,32,47,36,26,94,89,76,30.09,29.61,9,6,9,0.71
2013-3-19,39,33,27,34,23,20,86,67,55,30.02,29.78,13,8,13,0.00
2013-3-20,34,28,23,22,17,14,72,61,54,30.01,29.91,12,7,15,0.00
2013-3-21,30,24,19,22,16,11,78,71,63,29.98,29.91,10,4,14,0.00
2013-3-22,42,28,21,24,18,16,82,69,43,30.03,29.97,8,2,8,0.00
2013-3-23,47,39,21,28,24,16,83,58,41,30.07,29.96,10,2,10,0.00
2013-3-24,37,32,30,28,24,23,85,73,59,29.97,29.46,10,3,10,0.00
2013-3-25,38,31,30,32,28,28,91,89,79,29.86,29.40,7,1,7,0.24
2013-3-26,40,36,32,32,30,28,92,80,63,30.16,29.87,10,4,10,0.09
2013-3-27,43,37,33,32,29,24,86,73,52,30.24,30.15,13,6,13,0.00
2013-3-28,48,38,30,31,27,23,78,64,50,30.30,30.23,9,4,9,0.00
2013-3-29,53,40,25,33,28,20,84,62,42,30.30,30.21,7,2,11,0.00
2013-3-30,59,31,24,40,23,19,86,74,33,30.24,29.98,6,0,6,0.00
2013-3-31,56,47,42,45,36,27,85,67,51,29.97,29.74,10,3,10,0.06
2013-4-1,47,39,31,41,25,17,79,59,44,30.09,29.76,8,5,8,0.00
2013-4-2,42,32,21,22,18,13,75,56,39,30.23,30.11,8,3,8,0.00
2013-4-3,45,33,23,22,17,13,70,53,31,30.41,30.25,7,1,7,0.00
2013-4-4,58,38,23,23,18,12,70,47,24,30.36,30.00,8,2,8,0.00
2013-4-5,56,42,26,35,25,17,73,52,37,30.17,29.96,8,2,8,0.00
2013-4-6,59,46,33,25,22,13,68,40,25,30.26,29.94,8,4,8,0.00
2013-4-7,72,63,52,47,40,24,59,42,31,30.00,29.84,13,7,13,0.00
2013-4-8,71,57,48,54,46,38,79,68,53,30.01,29.88,12,3,12,0.00
2013-4-9,80,66,51,59,53,46,85,66,42,30.08,29.93,11,4,11,0.00
2013-4-10,78,67,58,64,58,53,90,75,56,29.97,29.82,12,4,12,0.38
2013-4-11,63,57,47,59,54,45,94,91,87,29.90,29.59,5,2,5,0.70
2013-4-12,57,48,39,56,44,33,95,87,72,29.78,29.50,8,5,8,0.19
2013-4-24,50,50,50,47,47,47,90,90,90,29.81,29.81,2,2,2,0.00